Simultaneous Nadir Overpasses (SNOs) Predictions

Prediction of SNOs near equator between AQUA and NPP Satellite Orbit:

Table of predicted SNOs near equator for the next 14.0 days since TLE Epoch: 5/18/2012
Index Date (AQUA) Time (AQUA) AQUA Lat,Lon Date (NPP) Time (NPP) NPP Lat,Lon Distance(km) Time Diff (sec)
1 05/21/2012 00:59:36 7.65,-172.06 05/21/2012 00:49:36 7.74,-172.69 70.18 600
2 05/21/2012 01:47:24 -1.96, -3.19 05/21/2012 01:38:35 -1.78, -4.02 94.70 529
3 05/23/2012 17:15:16 4.92, -55.58 05/23/2012 17:05:38 4.77, -56.24 74.94 578
4 05/26/2012 09:31:12 3.24, 60.66 05/26/2012 09:22:01 3.10, 59.91 85.49 551
5 05/29/2012 00:58:55 -6.23, 8.30 05/29/2012 00:48:55 -6.10, 7.72 65.84 600
6 05/29/2012 01:47:09 1.60, 176.91 05/29/2012 01:38:25 1.43, 176.06 96.22 524
7 05/31/2012 17:14:51
